Home   Weather   Port Vila   Past weeks

Flag for Vanuatu Past Weather in Port Vila, Vanuatu — Yesterday and Last 2 Weeks

82 °F

Passing clouds.

Feels Like: 83 °F
Forecast: 74 / 81 °F
Wind: 10 mph from Southeast

Location: Bauerfield Efate

Current Time: Oct 24, 2016 at 2:27:30 PM

Latest Report: Oct 24, 2016 at 12:00 PM

Visibility: N/A

Pressure: 29.89 "Hg

Humidity: 48%

Dew Point: 61 °F

Location of Port VilaLocation

Past Weather in Port Vila — Graph


Port Vila Temperature Yesterday

Maximum temperature yesterday: 82 °F (at 10:00 AM)
Minimum temperature yesterday: 64 °F (at 4:00 AM)
Average temperature yesterday: 74 °F

High & Low Weather Summary for the Past Weeks

High86 °F (Oct 18, 10:00 AM)100% (Oct 11, 4:00 AM)30.07 "Hg (Oct 11, 4:00 AM)
Low59 °F (Oct 11, 3:00 AM)48% (Oct 24, 10:00 AM)29.68 "Hg (Oct 10, 4:00 PM)
Average73 °F83%29.90 "Hg
* Reported Oct 9 12:00 PM — Oct 24 12:00 PM, Port Vila, Weather by CustomWeather, © 2016

Note: Actual official high and low records may vary slightly from our data, if they occured in-between our weather recording intervals... More about our weather records


Port Vila Weather History for the Previous 24 Hours

Scroll right to see more
Time TempWeatherWind HumidityBarometerVisibility
12:00 PM
Mon, Oct 24
82 °FPassing clouds.10 mph48%29.89 "HgN/A
11:00 AM82 °FPassing clouds.9 mph48%29.92 "HgN/A
10:00 AM81 °FPassing clouds.10 mph48%29.95 "HgN/A
9:00 AM79 °FScattered clouds.10 mph51%29.95 "HgN/A
8:00 AM77 °FScattered clouds.8 mph57%29.95 "HgN/A
7:00 AM72 °FPassing clouds.2 mph83%29.95 "HgN/A
6:00 AM64 °FPassing clouds.3 mph94%29.95 "HgN/A
5:00 AM61 °FPassing clouds.3 mph94%29.92 "HgN/A
4:00 AM61 °FPassing clouds.2 mph94%29.89 "HgN/A
3:00 AM63 °FPassing clouds.2 mph94%29.89 "HgN/A
2:00 AM63 °FPassing clouds.3 mph88%29.89 "HgN/A
12:00 AM66 °FPassing clouds.2 mph88%29.92 "HgN/A
11:00 PM
Sun, Oct 23
64 °FPassing clouds.2 mph94%29.95 "HgN/A
10:00 PM66 °FPassing clouds.3 mph88%29.95 "HgN/A
9:00 PM68 °FPassing clouds.5 mph83%29.95 "HgN/A
8:00 PM68 °FPassing clouds.3 mph83%29.92 "HgN/A
7:00 PM68 °FPassing clouds.3 mph88%29.92 "HgN/A
6:00 PM75 °FPassing clouds.6 mph69%29.89 "HgN/A
5:00 PM79 °FPassing clouds.14 mph65%29.89 "HgN/A
4:00 PM81 °FScattered clouds.15 mph62%29.89 "HgN/A
3:00 PM82 °FScattered clouds.12 mph55%29.86 "HgN/A
2:00 PM82 °FScattered clouds.12 mph51%29.89 "HgN/A
Weather by CustomWeather, © 2016

See weather overviewHow to use our weather pages